Powrót do katalogu

LEASAT 2

AktywnyMilitariaGEO
NORAD 15236·PAYLOAD·🇺🇸 United States

Wystrzelony Aug 30, 1984 z Cape Canaveral Space Force Station

Loading…

TLE

ŚwieżeSource: Space-Track

Epoka: Sep 14, 2026, 12:42 UTC

1 15236U 84093C   26257.52972205 -.00000153  00000-0  00000-0 0  9995
2 15236  10.6232 311.4915 0032122 285.0155  78.3868  0.97456303128933

Śledź LEASAT 2 w czasie rzeczywistym z AllMySat

Download on the App Store